DW8414 Weather Reports


time (UTC)temp
C
wind
direction
speed
KPH
gust
KPH
rain 1hr
cm
rain 24hr
cm
rain mn
cm
humidity
%
barometer
mb
20260507155833 15 250 0.0 8.0 0.00 0.00 0.00 62 1016.6
20260507155345 15 242 3.2 11.3 0.00 0.00 0.00 61 1016.5
20260507154905 15 231 3.2 11.3 0.00 0.00 0.00 61 1016.6
20260507154559 15 215 0.0 9.7 0.00 0.00 0.00 63 1016.7
20260507154317 15 272 1.6 8.0 0.00 0.00 0.00 61 1016.6
20260507153837 15 221 1.6 6.4 0.00 0.00 0.00 62 1016.7
20260507153444 15 211 0.0 9.7 0.00 0.00 0.00 63 1016.7
20260507153019 14 212 0.0 9.7 0.00 0.00 0.00 65 1016.9
20260507152827 15 226 1.6 9.7 0.00 0.00 0.00 65 1016.8
20260507152325 14 243 1.6 8.0 0.00 0.00 0.00 66 1016.8
20260507151824 14 238 1.6 9.7 0.00 0.00 0.00 67 1016.9
20260507151546 13 265 1.6 11.3 0.00 0.00 0.00 66 1017.1
20260507151330 14 285 1.6 12.9 0.00 0.00 0.00 66 1017.0
20260507150824 13 217 1.6 12.9 0.00 0.00 0.00 67 1017.2
20260507150324 13 268 0.0 14.5 0.00 0.00 0.00 68 1017.1
20260507150011 13 231 0.0 14.5 0.00 0.00 0.00 68 1017.2
20260507145818 13 229 1.6 14.5 0.00 0.00 0.00 68 1017.2
20260507145339 13 232 1.6 14.5 0.00 0.00 0.00 67 1017.2
20260507144820 13 266 0.0 9.7 0.00 0.00 0.00 69 1017.2
20260507144537 13 262 0.0 9.7 0.00 0.00 0.00 71 1017.4
20260507144336 13 242 3.2 9.7 0.00 0.00 0.00 70 1017.2
20260507143831 13 277 0.0 14.5 0.00 0.00 0.00 73 1017.3
20260507143348 12 253 1.6 14.5 0.00 0.00 0.00 72 1017.3
20260507143002 12 251 0.0 12.9 0.00 0.00 0.00 72 1017.5
20260507142828 12 247 1.6 12.9 0.00 0.00 0.00 73 1017.3
20260507142347 12 246 3.2 12.9 0.00 0.00 0.00 73 1017.4
20260507141846 12 278 1.6 9.7 0.00 0.00 0.00 75 1017.5
20260507141625 11 246 0.0 9.7 0.00 0.00 0.00 75 1017.6
20260507141335 12 269 3.2 9.7 0.00 0.00 0.00 76 1017.4
20260507140825 11 273 0.0 8.0 0.00 0.00 0.00 78 1017.4
20260507140329 11 243 1.6 8.0 0.00 0.00 0.00 80 1017.5
20260507140034 11 220 0.0 6.4 0.00 0.00 0.00 80 1017.8
20260507135824 11 252 0.0 3.2 0.00 0.00 0.00 81 1017.6
20260507135324 11 235 0.0 11.3 0.00 0.00 0.00 82 1017.7
20260507134846 10 251 0.0 4.8 0.00 0.00 0.00 83 1017.7
20260507134610 10 265 0.0 4.8 0.00 0.00 0.00 84 1017.9
20260507134319 10 232 0.0 6.4 0.00 0.00 0.00 85 1017.7
20260507133908 10 235 0.0 6.4 0.00 0.00 0.00 86 1017.8
20260507133345 10 234 0.0 4.8 0.00 0.00 0.00 86 1017.8
20260507133111 9 265 0.0 4.8 0.00 0.00 0.00 87 1018.1
20260507132825 9 238 0.0 6.4 0.00 0.00 0.00 87 1017.9
20260507132332 9 246 0.0 8.0 0.00 0.00 0.00 88 1017.8
20260507131832 9 269 1.6 6.4 0.00 0.00 0.00 89 1017.9
20260507131532 8 254 0.0 6.4 0.00 0.00 0.00 89 1018.1
20260507131328 8 243 0.0 4.8 0.00 0.00 0.00 89 1017.9
20260507130833 8 254 0.0 4.8 0.00 0.00 0.00 90 1017.9
20260507130352 8 204 0.0 4.8 0.00 0.00 0.00 90 1017.9
20260507130044 7 229 0.0 3.2 0.00 0.00 0.00 90 1018.2
20260507125828 8 228 0.0 3.2 0.00 0.00 0.00 90 1017.9
20260507125336 7 217 0.0 4.8 0.00 0.00 0.00 90 1017.9
20260507124839 7 213 0.0 4.8 0.00 0.00 0.00 91 1017.9
20260507124606 7 202 0.0 3.2 0.00 0.00 0.00 91 1018.1
20260507124359 7 239 0.0 3.2 0.00 0.00 0.00 91 1017.9
20260507123841 7 258 0.0 1.6 0.00 0.00 0.00 91 1017.9
20260507123418 7 268 0.0 0.0 0.00 0.00 0.00 91 1017.8
20260507123038 6 269 0.0 0.0 0.00 0.00 0.00 91 1018.1
20260507122834 6 269 0.0 0.0 0.00 0.00 0.00 91 1017.7
20260507122345 6 275 0.0 1.6 0.00 0.00 0.00 91 1017.8
20260507121825 6 275 0.0 1.6 0.00 0.00 0.00 91 1017.6
20260507121520 6 280 0.0 1.6 0.00 0.00 0.00 91 1017.9
20260507121333 6 280 0.0 1.6 0.00 0.00 0.00 91 1017.7
20260507120852 6 280 0.0 1.6 0.00 0.00 0.00 91 1017.7
20260507120321 5 280 0.0 0.0 0.00 0.00 0.00 91 1017.7
20260507120041 5 280 0.0 0.0 0.00 0.00 0.00 91 1018.1
20260507115843 5 280 0.0 0.0 0.00 0.00 0.00 91 1017.7
20260507115313 5 280 0.0 0.0 0.00 0.00 0.00 90 1017.6
20260507114842 5 299 0.0 0.0 0.00 0.00 0.00 90 1017.6
20260507114605 5 299 0.0 0.0 0.00 0.00 0.00 90 1017.9
20260507114347 5 299 0.0 0.0 0.00 0.00 0.00 90 1017.6
20260507113818 5 299 0.0 0.0 0.00 0.00 0.00 90 1017.6
20260507113342 5 299 0.0 0.0 0.00 0.00 0.00 90 1017.8
20260507113006 5 299 0.0 0.0 0.00 0.00 0.00 90 1018.0
20260507112819 5 299 0.0 0.0 0.00 0.00 0.00 90 1017.7
20260507112334 5 299 0.0 0.0 0.00 0.00 0.00 90 1017.8
20260507111819 5 299 0.0 0.0 0.00 0.00 0.00 90 1017.8
20260507111555 5 299 0.0 0.0 0.00 0.00 0.00 90 1018.0
20260507111343 5 299 0.0 0.0 0.00 0.00 0.00 90 1017.7
20260507110848 5 299 0.0 0.0 0.00 0.00 0.00 89 1017.6
20260507110319 5 299 0.0 0.0 0.00 0.00 0.00 89 1017.6
20260507110105 5 299 0.0 0.0 0.00 0.00 0.00 89 1017.9
20260507105817 5 299 0.0 0.0 0.00 0.03 0.00 90 1017.6
20260507105321 5 301 0.0 0.0 0.00 0.03 0.00 90 1017.6
20260507104823 5 302 0.0 0.0 0.00 0.03 0.00 90 1017.6
20260507104536 5 302 0.0 0.0 0.00 0.03 0.00 90 1017.8
20260507104325 5 302 0.0 0.0 0.00 0.03 0.00 90 1017.6
20260507103857 5 302 0.0 0.0 0.00 0.03 0.00 89 1017.6
20260507103346 5 302 0.0 0.0 0.00 0.03 0.00 89 1017.6
20260507103111 5 302 0.0 0.0 0.00 0.03 0.00 89 1017.9
20260507102837 5 302 0.0 0.0 0.00 0.03 0.00 88 1017.6
20260507102328 5 302 0.0 0.0 0.00 0.03 0.00 88 1017.6
20260507101829 5 302 0.0 0.0 0.00 0.03 0.00 89 1017.6
20260507101520 5 302 0.0 0.0 0.00 0.03 0.00 89 1017.9
20260507101331 5 302 0.0 0.0 0.00 0.03 0.00 89 1017.7
20260507100835 5 302 0.0 0.0 0.00 0.03 0.00 88 1017.8
20260507100326 5 302 0.0 0.0 0.00 0.03 0.00 88 1017.8
20260507100052 5 302 0.0 0.0 0.00 0.03 0.00 88 1018.0
20260507095846 5 302 0.0 0.0 0.00 0.03 0.00 88 1017.8
20260507095323 6 302 0.0 0.0 0.00 0.03 0.00 88 1017.9
20260507094821 6 302 0.0 0.0 0.00 0.03 0.00 88 1018.0
20260507094534 5 302 0.0 0.0 0.00 0.03 0.00 87 1018.1
20260507094327 6 302 0.0 0.0 0.00 0.03 0.00 87 1018.0
20260507093831 6 302 0.0 0.0 0.00 0.03 0.00 87 1018.0
20260507093323 6 302 0.0 0.0 0.00 0.03 0.00 87 1018.0
20260507093009 6 302 0.0 0.0 0.00 0.03 0.00 87 1018.1
20260507092824 6 302 0.0 0.0 0.00 0.03 0.00 87 1018.0
20260507092338 6 302 0.0 0.0 0.00 0.03 0.00 87 1018.1
20260507091838 6 302 0.0 0.0 0.00 0.03 0.00 87 1018.1
20260507091521 6 302 0.0 0.0 0.00 0.03 0.00 87 1018.3
20260507091332 6 302 0.0 0.0 0.00 0.03 0.00 87 1018.2
20260507090837 6 302 0.0 0.0 0.00 0.03 0.00 87 1018.2
20260507090340 6 302 0.0 0.0 0.00 0.03 0.00 87 1018.4
20260507090114 6 302 0.0 0.0 0.00 0.03 0.00 87 1018.5
20260507085830 7 302 0.0 0.0 0.00 0.08 0.00 87 1018.3
20260507085344 7 302 0.0 1.6 0.00 0.08 0.00 87 1018.3
20260507084835 7 302 0.0 0.0 0.00 0.08 0.00 87 1018.4
20260507084516 6 302 0.0 0.0 0.00 0.08 0.00 87 1018.6
20260507084330 7 304 0.0 0.0 0.00 0.08 0.00 87 1018.4
20260507083837 7 304 0.0 0.0 0.00 0.08 0.00 87 1018.4
20260507083321 7 304 0.0 0.0 0.00 0.08 0.00 87 1018.4
20260507083040 6 305 0.0 0.0 0.00 0.08 0.00 87 1018.6
20260507082820 7 306 0.0 0.0 0.00 0.08 0.00 86 1018.5
20260507082345 7 306 0.0 0.0 0.00 0.08 0.00 85 1018.5
20260507081845 7 328 0.0 0.0 0.00 0.08 0.00 85 1018.7
20260507081615 7 333 0.0 0.0 0.00 0.08 0.00 85 1018.8
20260507081333 7 333 0.0 0.0 0.00 0.08 0.00 85 1018.7
20260507080904 7 334 0.0 0.0 0.00 0.08 0.00 85 1018.7
20260507080337 7 335 0.0 0.0 0.00 0.08 0.00 85 1018.6
20260507080022 7 340 0.0 0.0 0.00 0.08 0.00 85 1018.8
20260507075821 7 341 0.0 0.0 0.00 0.08 0.00 85 1018.6
20260507075338 7 342 0.0 0.0 0.00 0.08 0.00 85 1018.7
20260507074848 7 342 0.0 0.0 0.00 0.08 0.00 84 1018.7
20260507074606 7 342 0.0 0.0 0.00 0.08 0.00 84 1018.8
20260507074351 8 342 0.0 0.0 0.00 0.08 0.00 84 1018.7
20260507073818 8 342 0.0 0.0 0.00 0.08 0.00 83 1018.6
20260507073319 8 342 0.0 0.0 0.00 0.08 0.00 84 1018.6
20260507073031 8 342 0.0 0.0 0.00 0.08 0.00 84 1018.8
20260507072839 8 342 0.0 0.0 0.00 0.08 0.00 84 1018.7
20260507072343 8 342 0.0 0.0 0.00 0.08 0.00 83 1018.7
20260507071825 8 342 0.0 0.0 0.00 0.08 0.00 84 1018.8
20260507071529 8 342 0.0 0.0 0.00 0.08 0.00 84 1018.9
20260507071326 8 342 0.0 0.0 0.00 0.08 0.00 84 1018.8
20260507070830 8 342 0.0 0.0 0.00 0.08 0.00 84 1018.9
20260507070340 8 342 0.0 0.0 0.00 0.08 0.00 84 1018.9
20260507070100 8 342 0.0 0.0 0.00 0.08 0.00 85 1019.1
20260507065841 8 342 0.0 0.0 0.00 0.18 0.00 85 1018.9
20260507065408 8 342 0.0 0.0 0.00 0.18 0.00 85 1019.0
20260507064845 8 342 0.0 0.0 0.00 0.18 0.00 85 1019.2
20260507064504 8 342 0.0 0.0 0.00 0.18 0.00 85 1019.3
20260507064405 8 342 0.0 0.0 0.00 0.18 0.00 85 1019.1
20260507063842 8 342 0.0 0.0 0.00 0.18 0.00 85 1019.1
20260507063356 8 342 0.0 0.0 0.00 0.18 0.00 85 1019.2
20260507063047 8 342 0.0 0.0 0.00 0.18 0.00 85 1019.5
20260507062847 8 342 0.0 0.0 0.00 0.18 0.00 85 1019.2
20260507062330 8 342 0.0 0.0 0.00 0.18 0.00 84 1019.2
20260507061829 8 342 0.0 0.0 0.00 0.18 0.00 84 1019.2
20260507061544 8 342 0.0 0.0 0.00 0.18 0.00 84 1019.4
20260507061352 8 342 0.0 0.0 0.00 0.18 0.00 83 1019.2
20260507060836 8 342 0.0 0.0 0.00 0.18 0.00 83 1019.2
20260507060338 8 342 0.0 0.0 0.00 0.18 0.00 83 1019.2
20260507060039 8 342 0.0 0.0 0.00 0.20 0.00 83 1019.4
20260507055831 8 342 0.0 0.0 0.00 0.20 0.00 83 1019.2
20260507055328 8 342 0.0 0.0 0.00 0.20 0.00 84 1019.3
20260507054823 8 342 0.0 0.0 0.00 0.20 0.00 84 1019.2
20260507054503 8 342 0.0 0.0 0.00 0.20 0.00 84 1019.4
20260507054337 8 342 0.0 0.0 0.00 0.20 0.00 84 1019.1
20260507053924 8 342 0.0 0.0 0.00 0.20 0.00 84 1019.0
20260507053330 8 342 0.0 0.0 0.00 0.20 0.00 84 1019.0
20260507052857 8 342 0.0 0.0 0.00 0.20 0.00 84 1019.2
20260507052340 8 342 0.0 0.0 0.00 0.20 0.00 84 1019.3
20260507051838 8 342 0.0 0.0 0.00 0.20 0.00 84 1019.2
20260507051600 8 342 0.0 0.0 0.00 0.20 0.00 83 1019.3
20260507051344 8 342 0.0 0.0 0.00 0.20 0.00 83 1019.1
20260507050838 8 342 0.0 0.0 0.00 0.20 0.00 83 1019.1
20260507050338 8 342 0.0 0.0 0.00 0.20 0.00 83 1019.2
20260507050035 8 342 0.0 0.0 0.00 0.20 0.20 83 1019.5
20260507045834 8 342 0.0 0.0 0.00 0.20 0.20 83 1019.3
20260507045329 8 342 0.0 0.0 0.00 0.20 0.20 83 1019.2
20260507044844 8 342 0.0 0.0 0.00 0.20 0.20 83 1019.3
20260507044537 8 342 0.0 0.0 0.00 0.20 0.20 83 1019.5
20260507044334 8 342 0.0 0.0 0.00 0.20 0.20 83 1019.2
20260507043856 8 342 0.0 0.0 0.00 0.20 0.20 83 1019.2
20260507043342 8 342 0.0 0.0 0.00 0.20 0.20 83 1019.2
20260507043102 8 342 0.0 0.0 0.00 0.20 0.20 83 1019.4
20260507042820 8 342 0.0 0.0 0.00 0.20 0.20 83 1019.2
20260507042325 8 342 0.0 0.0 0.00 0.20 0.20 83 1019.1
20260507041831 8 342 0.0 0.0 0.00 0.20 0.20 83 1019.1
20260507041554 8 342 0.0 0.0 0.00 0.20 0.20 83 1019.2
20260507041333 8 342 0.0 0.0 0.00 0.20 0.20 83 1018.9
20260507040855 8 342 0.0 0.0 0.00 0.20 0.20 83 1019.0
20260507040325 8 342 0.0 0.0 0.00 0.20 0.20 81 1019.1
20260507040057 7 344 0.0 0.0 0.00 0.20 0.20 80 1019.3
20260507035823 7 344 0.0 0.0 0.00 0.20 0.20 80 1019.1
20260507035319 8 344 0.0 0.0 0.00 0.20 0.20 80 1019.1
20260507034855 8 344 0.0 0.0 0.00 0.20 0.20 79 1019.1
20260507034550 7 344 0.0 0.0 0.00 0.20 0.20 79 1019.4
20260507034344 8 344 0.0 0.0 0.00 0.20 0.20 79 1019.2
20260507033852 8 344 0.0 0.0 0.00 0.20 0.20 77 1019.2
20260507033356 8 344 0.0 0.0 0.00 0.20 0.20 76 1019.2
20260507033050 8 344 0.0 0.0 0.00 0.20 0.20 76 1019.4
20260507032835 8 344 0.0 0.0 0.00 0.20 0.20 76 1019.3
20260507032359 8 344 0.0 0.0 0.00 0.20 0.20 74 1019.3
20260507031858 8 344 0.0 0.0 0.00 0.20 0.20 73 1019.2
20260507031540 8 344 0.0 0.0 0.00 0.20 0.20 73 1019.4
20260507031332 8 344 0.0 0.0 0.00 0.20 0.20 74 1019.1
20260507030838 9 344 0.0 0.0 0.00 0.20 0.20 72 1019.1
20260507030342 9 344 0.0 0.0 0.00 0.20 0.20 70 1019.0
20260507030105 9 344 0.0 0.0 0.00 0.20 0.20 69 1019.2
20260507025832 10 344 0.0 0.0 0.00 0.20 0.20 68 1019.0
20260507025319 10 344 0.0 0.0 0.00 0.20 0.20 67 1018.9
20260507024844 10 344 0.0 0.0 0.00 0.20 0.20 67 1018.9
20260507024607 10 344 0.0 0.0 0.00 0.20 0.20 66 1019.2
20260507024322 10 344 0.0 0.0 0.00 0.20 0.20 66 1018.9
20260507023830 11 344 0.0 0.0 0.00 0.20 0.20 65 1018.9
20260507023335 11 344 0.0 0.0 0.00 0.20 0.20 64 1018.9
20260507023046 11 344 0.0 0.0 0.00 0.20 0.20 64 1019.0
20260507022831 11 344 0.0 0.0 0.00 0.20 0.20 63 1018.8
20260507022322 11 344 0.0 0.0 0.00 0.20 0.20 64 1018.7
20260507021822 12 344 0.0 0.0 0.00 0.20 0.20 63 1018.6
20260507021518 11 344 0.0 0.0 0.00 0.20 0.20 63 1018.8
20260507021332 12 344 0.0 0.0 0.00 0.20 0.20 63 1018.7
20260507020820 12 344 0.0 0.0 0.00 0.20 0.20 62 1018.6
20260507020318 12 344 0.0 0.0 0.00 0.20 0.20 61 1018.6
20260507020038 12 344 0.0 0.0 0.00 0.20 0.20 60 1018.8
20260507015841 12 344 0.0 0.0 0.00 0.20 0.20 59 1018.6
20260507015320 12 344 0.0 0.0 0.00 0.20 0.20 59 1018.5
20260507014821 12 344 0.0 0.0 0.00 0.20 0.20 59 1018.4
20260507014601 12 344 0.0 0.0 0.00 0.20 0.20 60 1018.6
20260507014451 12 344 0.0 0.0 0.00 0.20 0.20 61 1018.4
20260507013824 13 342 0.0 0.0 0.00 0.20 0.20 60 1018.2
20260507013324 13 342 0.0 0.0 0.00 0.20 0.20 59 1018.2
20260507013115 12 342 0.0 0.0 0.00 0.20 0.20 58 1018.4
20260507012843 13 342 0.0 0.0 0.00 0.20 0.20 57 1018.1
20260507012337 13 342 0.0 0.0 0.00 0.20 0.20 56 1018.0
20260507011825 13 342 0.0 0.0 0.00 0.20 0.20 54 1018.1
20260507011603 13 342 0.0 0.0 0.00 0.20 0.20 54 1018.3
20260507011320 13 342 0.0 0.0 0.00 0.20 0.20 54 1018.0
20260507010822 13 342 0.0 0.0 0.00 0.20 0.20 51 1018.0
20260507010348 13 342 0.0 0.0 0.00 0.20 0.20 50 1017.9
20260507010002 13 342 0.0 0.0 0.00 0.25 0.20 49 1018.2
20260507005835 13 342 0.0 0.0 0.00 0.25 0.20 49 1017.9
20260507005334 13 338 0.0 0.0 0.00 0.25 0.20 50 1018.0
20260507004831 13 336 0.0 0.0 0.00 0.25 0.20 49 1017.9
20260507004534 13 337 0.0 0.0 0.00 0.25 0.20 49 1018.2
20260507004329 14 340 0.0 0.0 0.00 0.25 0.20 50 1017.9
20260507003832 14 340 0.0 0.0 0.00 0.25 0.20 50 1017.8
20260507003322 14 340 0.0 0.0 0.00 0.25 0.20 49 1017.7
20260507003111 13 340 0.0 0.0 0.00 0.25 0.20 50 1018.1
20260507002819 14 338 0.0 0.0 0.00 0.25 0.20 49 1017.7
20260507002323 14 338 0.0 0.0 0.00 0.25 0.20 50 1017.6
20260507001848 14 350 0.0 0.0 0.00 0.25 0.20 48 1017.6
20260507001523 14 5 0.0 0.0 0.00 0.25 0.20 49 1017.9
20260507001332 14 318 0.0 0.0 0.00 0.25 0.20 49 1017.6
20260507000833 14 299 0.0 1.6 0.00 0.25 0.20 48 1017.7
20260507000347 14 279 0.0 1.6 0.00 0.25 0.20 49 1017.9
20260507000026 14 279 0.0 0.0 0.00 0.25 0.20 50 1018.1
20260506235829 14 40 0.0 0.0 0.00 0.25 0.20 51 1017.9
20260506235341 15 349 0.0 0.0 0.00 0.25 0.20 51 1017.9
20260506234836 15 349 0.0 0.0 0.00 0.25 0.20 50 1017.9
20260506234521 14 349 0.0 0.0 0.00 0.25 0.20 50 1018.0
20260506234428 15 349 0.0 0.0 0.00 0.25 0.20 49 1017.8
20260506233842 15 336 0.0 0.0 0.00 0.25 0.20 48 1017.7
20260506233346 15 336 0.0 0.0 0.00 0.25 0.20 49 1017.7
20260506233003 14 28 0.0 1.6 0.00 0.25 0.20 49 1017.9
20260506232833 15 340 0.0 1.6 0.00 0.25 0.20 49 1017.6
20260506232327 15 336 0.0 1.6 0.00 0.25 0.20 49 1017.8
20260506231834 15 258 0.0 1.6 0.00 0.25 0.20 50 1017.8
20260506231518 14 34 0.0 1.6 0.00 0.25 0.20 50 1018.0
20260506231332 15 34 0.0 1.6 0.00 0.25 0.20 51 1017.7
20260506230833 15 298 0.0 1.6 0.00 0.25 0.20 49 1017.6
20260506230355 15 360 0.0 1.6 0.00 0.25 0.20 49 1017.6
20260506230026 15 26 0.0 0.0 0.00 0.25 0.20 48 1018.0
20260506225850 15 325 0.0 1.6 0.00 0.25 0.20 50 1017.8
20260506225333 15 355 0.0 1.6 0.00 0.25 0.20 50 1017.8
20260506224835 15 5 0.0 3.2 0.00 0.25 0.20 49 1017.8
20260506224546 15 296 0.0 3.2 0.00 0.25 0.20 48 1018.0
20260506224342 15 323 0.0 3.2 0.00 0.25 0.20 49 1017.7
20260506223824 15 58 0.0 3.2 0.00 0.25 0.20 48 1017.6
20260506223341 15 315 0.0 3.2 0.00 0.25 0.20 50 1017.5
20260506223127 15 327 0.0 1.6 0.00 0.25 0.20 49 1017.8
20260506222902 15 10 0.0 1.6 0.00 0.25 0.20 51 1017.5
20260506222344 15 5 0.0 1.6 0.00 0.25 0.20 53 1017.5
20260506221906 15 355 0.0 1.6 0.00 0.25 0.20 51 1017.6
20260506221602 14 52 0.0 1.6 0.00 0.25 0.20 52 1017.8
20260506221343 15 360 0.0 1.6 0.00 0.25 0.20 52 1017.6
20260506220838 14 32 0.0 1.6 0.00 0.25 0.20 53 1017.5
20260506220321 14 333 0.0 3.2 0.00 0.25 0.20 51 1017.5
20260506220009 14 348 0.0 3.2 0.00 0.25 0.20 52 1017.8
20260506215832 14 16 0.0 3.2 0.00 0.25 0.20 52 1017.5
20260506215329 14 328 0.0 1.6 0.00 0.25 0.20 52 1017.6
20260506214836 15 11 0.0 0.0 0.00 0.25 0.20 52 1017.5
20260506214603 14 47 0.0 0.0 0.00 0.25 0.20 52 1017.9
20260506214347 15 78 0.0 0.0 0.00 0.25 0.20 52 1017.8
20260506213819 15 46 0.0 0.0 0.00 0.25 0.20 53 1017.7
20260506213339 15 349 0.0 0.0 0.00 0.25 0.20 52 1017.9
20260506213042 14 50 0.0 0.0 0.00 0.25 0.20 52 1018.1
20260506212825 15 14 0.0 0.0 0.00 0.25 0.20 52 1017.9
20260506212330 15 315 0.0 1.6 0.00 0.25 0.20 51 1017.9
20260506211833 15 333 0.0 6.4 0.00 0.25 0.20 50 1017.9
20260506211551 14 9 0.0 6.4 0.00 0.25 0.20 51 1018.2
20260506211343 15 313 0.0 9.7 0.00 0.25 0.20 50 1017.9
20260506210846 15 34 0.0 9.7 0.00 0.25 0.20 51 1017.9
20260506210315 15 103 0.0 1.6 0.00 0.25 0.20 49 1018.0
20260506210023 15 45 0.0 1.6 0.00 0.25 0.20 51 1018.3
20260506205824 15 105 0.0 1.6 0.00 0.25 0.20 50 1018.0
20260506205326 15 13 0.0 0.0 0.00 0.25 0.20 51 1018.1
20260506204842 15 81 0.0 0.0 0.00 0.25 0.20 50 1018.2
20260506204557 15 34 0.0 0.0 0.00 0.25 0.20 48 1018.5
20260506204349 15 38 0.0 1.6 0.00 0.25 0.20 48 1018.2
20260506203824 15 27 0.0 1.6 0.00 0.25 0.20 49 1018.3
20260506203322 15 65 0.0 1.6 0.00 0.25 0.20 51 1018.3
20260506203042 15 52 0.0 1.6 0.00 0.25 0.20 50 1018.6
20260506202825 15 41 0.0 1.6 0.00 0.25 0.20 50 1018.3
20260506202325 15 316 0.0 1.6 0.00 0.25 0.20 49 1018.4
20260506201822 15 41 0.0 0.0 0.00 0.25 0.20 51 1018.6
20260506201548 14 355 0.0 1.6 0.00 0.25 0.20 49 1018.9
20260506201346 15 337 0.0 1.6 0.00 0.25 0.20 49 1018.6
20260506200821 15 92 0.0 3.2 0.00 0.25 0.20 50 1018.6
20260506200347 15 91 0.0 3.2 0.00 0.25 0.20 47 1018.7
20260506200151 14 143 0.0 1.6 0.00 0.25 0.20 49 1019.1
20260506195847 15 302 0.0 1.6 0.00 0.25 0.20 47 1018.7
20260506195326 15 355 0.0 1.6 0.00 0.25 0.20 50 1018.8
20260506194828 15 360 0.0 1.6 0.00 0.25 0.20 51 1018.9
20260506194516 15 32 0.0 1.6 0.00 0.25 0.20 51 1019.3
20260506194345 15 16 0.0 1.6 0.00 0.25 0.20 51 1019.0
20260506193835 15 109 0.0 1.6 0.00 0.25 0.20 50 1019.0
20260506193355 15 50 0.0 1.6 0.00 0.25 0.20 53 1019.0
20260506193018 15 355 0.0 1.6 0.00 0.25 0.20 55 1019.4
20260506192833 15 331 0.0 1.6 0.00 0.25 0.20 54 1019.1
20260506192319 15 335 0.0 3.2 0.00 0.25 0.20 54 1019.1
20260506191849 14 77 0.0 3.2 0.00 0.25 0.20 53 1019.1
20260506191604 14 328 0.0 4.8 0.00 0.25 0.20 53 1019.4
20260506191353 14 75 0.0 4.8 0.00 0.25 0.20 54 1019.0
20260506190825 14 57 0.0 4.8 0.00 0.25 0.20 53 1019.1
20260506190328 14 340 0.0 0.0 0.00 0.25 0.20 52 1019.1
20260506190052 13 84 0.0 0.0 0.00 0.25 0.20 52 1019.4
20260506185847 14 105 0.0 0.0 0.00 0.25 0.20 50 1019.1
20260506185327 13 28 0.0 1.6 0.00 0.25 0.20 54 1019.1
20260506184844 13 355 0.0 1.6 0.00 0.25 0.20 54 1019.0
20260506184604 13 33 0.0 1.6 0.00 0.25 0.20 55 1019.4
20260506184343 13 28 0.0 1.6 0.00 0.25 0.20 56 1019.1
20260506183851 13 360 0.0 1.6 0.00 0.25 0.20 57 1019.2
20260506183337 13 63 0.0 0.0 0.00 0.25 0.20 56 1019.2
20260506183111 13 102 0.0 0.0 0.00 0.25 0.20 59 1019.7
20260506182824 13 299 0.0 0.0 0.00 0.25 0.20 58 1019.5
20260506182327 13 105 0.0 1.6 0.00 0.25 0.20 59 1019.5
20260506181849 13 346 0.0 1.6 0.00 0.25 0.20 59 1019.5
20260506181509 12 105 0.0 1.6 0.00 0.25 0.20 64 1019.9
20260506181326 13 22 0.0 1.6 0.00 0.25 0.20 60 1019.6
20260506180819 13 82 0.0 1.6 0.00 0.25 0.20 60 1019.6
20260506180333 12 59 0.0 4.8 0.00 0.25 0.20 62 1019.6
20260506180039 12 79 0.0 4.8 0.00 0.28 0.20 59 1020.0
20260506175833 12 71 0.0 4.8 0.00 0.28 0.20 62 1019.7
20260506175325 12 331 0.0 0.0 0.00 0.28 0.20 63 1019.8
20260506174844 12 90 0.0 0.0 0.00 0.28 0.20 64 1019.9
20260506174552 11 90 0.0 0.0 0.00 0.28 0.20 63 1020.3
20260506174344 12 91 0.0 0.0 0.00 0.28 0.20 62 1019.9
20260506173830 11 28 0.0 1.6 0.00 0.28 0.20 62 1020.1
20260506173402 11 57 0.0 3.2 0.00 0.28 0.20 66 1020.1
20260506173124 11 61 0.0 3.2 0.00 0.28 0.20 65 1020.5
20260506172825 11 21 0.0 3.2 0.00 0.28 0.20 66 1020.1
20260506172336 11 355 0.0 1.6 0.00 0.28 0.20 67 1020.1
20260506171857 11 31 0.0 4.8 0.00 0.28 0.20 69 1020.1
20260506171559 11 43 0.0 4.8 0.00 0.28 0.20 70 1020.4
20260506171337 11 288 0.0 4.8 0.00 0.28 0.20 71 1020.1
20260506170827 11 53 0.0 0.0 0.00 0.28 0.20 76 1019.9
20260506170322 11 58 0.0 1.6 0.00 0.28 0.20 76 1020.0
20260506170013 10 42 0.0 1.6 0.00 0.28 0.20 77 1020.4
20260506165841 11 70 0.0 1.6 0.00 0.28 0.20 78 1020.0
20260506165322 10 5 0.0 3.2 0.00 0.28 0.20 79 1020.0
20260506164822 10 31 0.0 3.2 0.00 0.28 0.20 80 1020.0
20260506164536 10 31 0.0 1.6 0.00 0.28 0.20 82 1020.4
20260506164326 10 98 0.0 1.6 0.00 0.28 0.20 82 1020.0
20260506163827 10 360 0.0 1.6 0.00 0.28 0.20 85 1019.9
20260506163342 10 27 0.0 1.6 0.00 0.28 0.20 85 1020.0
20260506163052 9 33 0.0 1.6 0.00 0.28 0.20 85 1020.4
20260506162833 9 5 0.0 1.6 0.00 0.28 0.20 85 1020.1
20260506162327 9 350 0.0 1.6 0.00 0.28 0.20 86 1020.0
20260506161827 9 16 0.0 0.0 0.00 0.28 0.20 87 1020.2
20260506161524 8 355 0.0 0.0 0.00 0.28 0.20 87 1020.6
20260506161322 9 360 0.0 0.0 0.00 0.28 0.20 88 1020.2
20260506160835 8 29 0.0 0.0 0.00 0.28 0.20 88 1020.2
20260506160325 8 55 0.0 0.0 0.00 0.28 0.20 88 1020.3
20260506160105 8 30 0.0 0.0 0.00 0.28 0.20 88 1020.5